Regional Weather Roundup
Issued by NWS

Home | Current Version | Previous Version | Text Only | Print | Product List | Glossary On
Versions: 1 2 3 4 5 6 7 8 9 10 11 12 13 14 15 16 17 18 19 20 21 22 23 24 25 26 27 28 29 30 31 32 33 34 35 36 37 38 39 40 41 42 43 44 45 46 47 48 49 50
000
ASUS43 KLOT 281412
RWRIL

ILLINOIS REGIONAL WEATHER ROUNDUP
NATIONAL WEATHER SERVICE CHICAGO/ROMEOVILLE IL
900 AM CDT TUE JUL 28 2015

NOTE: "FAIR" INDICATES FEW OR NO CLOUDS BELOW 12,000 FEET WITH NO
SIGNIFICANT WEATHER AND/OR OBSTRUCTIONS TO VISIBILITY.

* THESE STATIONS ARE NOT UNDER NWS QUALITY CONTROL. THEY ALSO MAY NOT
  REPORT WEATHER SUCH AS PRECIPITATION OR FOG.

ILZ001-002-007-009-015-016-024-281500-
NORTHWEST ILLINOIS

CITY           SKY/WX    TMP DP  RH WIND       PRES   REMARKS
MOLINE         PTSUNNY   77  72  84 SE6       29.95S
STERLING*      SUNNY     79  72  78 SE7       29.96S HX  82
SAVANNA*       PTSUNNY   78  68  71 SE7       29.97R HX  80
$$

ILZ003-004-008-010-011-017-018-281500-
NORTH CENTRAL ILLINOIS

CITY           SKY/WX    TMP DP  RH WIND       PRES   REMARKS
ROCKFORD       PTSUNNY   77  66  68 SE10      29.98F
FREEPORT*      MOSUNNY   74  67  79 SE6       30.00R
ROCHELLE*      SUNNY     77  68  73 SE7       29.98F
DE KALB*       SUNNY     76  67  74 SE8       30.00F
PERU*          SUNNY     78  68  72 SE5       29.98F HX  80
$$

ILZ005-006-012>014-019>023-281500-
NORTHEAST ILLINOIS

CITY           SKY/WX    TMP DP  RH WIND       PRES   REMARKS
CHICAGO-OHARE  MOSUNNY   81  64  56 SE10      29.98F HX  82
CHICAGO-MIDWAY MOSUNNY   83  62  49 SE9       29.98F HX  84
AURORA         SUNNY     80  68  66 SE8       29.98F HX  83
LANSING*       SUNNY     80  62  54 SE8       30.00F HX  81
JOLIET*        SUNNY     81  70  70 SE7       29.98F HX  84
WAUKEGAN       SUNNY     77  67  71 SE10      29.99F
DUPAGE AIRPORT SUNNY     80  67  64 SE12      29.97F HX  82
KANKAKEE*      SUNNY     78  70  77 E5        30.00F HX  80
WHEELING       SUNNY     80  66  62 SE8       29.99F HX  82
MORRIS*        SUNNY     77  69  78 SE5       29.96F
ROMEOVILLE*    SUNNY     80  66  62 SE9       29.98F HX  82
NORTHERLY ISL    N/A     77  69  76 E3          N/A
$$

LMZ740>746-281500-
SOUTHERN LAKE MICHIGAN

STATION/POSITION SKY/WX   TEMP    WIND        PRES    VSBY  WAVE
                          AIR SEA DIR/SP/G                  HT/PER
                          (F)     (DEG/KT/KT) (MB)    (MI)  (FT/S)
HARRISON CRIB              75     160/  6/  8   N/A
BURNHAM HARBOR             77      80/  3/  5   N/A
CALUMET HARBOR             78     100/  2/  4   N/A
BURNS HARBOR               78     140/ 10/ 13 1016.6S
MICHIGAN CITY              76     110/  9/ 11   N/A
MICHIGAN CITY 6N           77 74  150/  8/  8   N/A           1
ST. JOSEPH                 74 73  170/  6/  6   N/A           1
$$

ILZ025>027-034>036-040-047-049-050-058-095>099-281500-
WEST-CENTRAL ILLINOIS

CITY           SKY/WX    TMP DP  RH WIND       PRES   REMARKS
QUINCY         SUNNY     79  73  82 S8        29.94S HX  82
GALESBURG*     MOSUNNY   79  74  85 SE5       29.96S HX  83
MACOMB*        CLOUDY    76  76 100 SE5       29.98S FOG
JACKSONVILLE*  SUNNY     81  75  81 S3        29.96S HX  87
PITTSFIELD*    SUNNY     78  73  85 SE3       29.97S
$$

ILZ028>032-037-038-041>044-048-051>054-059>061-281500-
CENTRAL ILLINOIS

CITY           SKY/WX    TMP DP  RH WIND       PRES   REMARKS
PONTIAC        SUNNY     78  74  88 SE6       29.99F HX  81
BLOOMINGTON    SUNNY     80  76  87 SE3       30.00S HX  85
DECATUR        SUNNY     81  74  79 SE5       29.98R HX  86
PEORIA         SUNNY     82  74  76 E6        29.96F HX  88
LACON*         SUNNY     77  71  81 SE5       29.95F
LINCOLN*       SUNNY     82  74  78 E5        29.97S HX  87
SPRINGFIELD    SUNNY     83  75  77 CALM      29.97S HX  90
TAYLORVILLE    SUNNY     79  75  89 SE3       29.97F HX  82
$$

ILZ033-039-045-046-055>057-062-063-281500-
EAST-CENTRAL ILLINOIS

CITY           SKY/WX    TMP DP  RH WIND       PRES   REMARKS
CHAMPAIGN      SUNNY     80  76  87 E5        29.99R HX  86
DANVILLE*      SUNNY     79  75  87 SE3       29.98R HX  83
RANTOUL*       SUNNY     80  76  85 SE5       29.99S HX  86
MATTOON        SUNNY     79  71  76 S7        29.99R HX  82
PARIS*         SUNNY     80  76  88 SE3       29.99S HX  86
$$

ILZ079-100>102-281500-
SOUTHWEST ILLINOIS

CITY           SKY/WX    TMP DP  RH WIND       PRES   REMARKS
ALTON          MOSUNNY   79  75  89 VRB5      29.97R HX  82
BELLEVILLE     SUNNY     81  79  92 S5        29.96S HX  90
CAHOKIA*       SUNNY     83  75  77 SE3       29.97R HX  90
SPARTA*        SUNNY     80  76  87 SW5       29.99R HX  85
$$

ILZ064>066-069>071-074>076-080>082-084>086-088>090-092>094-281500-
SOUTH-CENTRAL ILLINOIS

CITY           SKY/WX    TMP DP  RH WIND       PRES   REMARKS
CARBONDALE     SUNNY     82  76  81 SW3       29.98R HX  89
CAIRO*         SUNNY     83  78  86 SW5       29.98R HX  93
EFFINGHAM*     MOSUNNY   80  71  75 SE3       30.00R HX  84
MARION         SUNNY     82  77  83 S6        29.98  HX  91
MT. VERNON     SUNNY     81  72  74 SW5       29.99R HX  84
CENTRALIA*     SUNNY     80  71  75 CALM      29.99R HX  84
SALEM*         SUNNY     82  72  72 CALM      29.98S HX  86
METROPOLIS*    SUNNY     84  80  88 CALM      29.99S HX  97
$$

ILZ067-068-072-073-078-083-087-091-281500-
SOUTHEAST ILLINOIS

CITY           SKY/WX    TMP DP  RH WIND       PRES   REMARKS
LAWRENCEVILLE  PTSUNNY   80  76  87 S5        29.99R HX  86
FLORA*         PTSUNNY   79  73  82 CALM      29.99R HX  83
FAIRFIELD*     MOSUNNY   79  76  88 S3        29.97S HX  84
HARRISBURG*    SUNNY     80  77  91 CALM      29.99S HX  85
ROBINSON*      CLOUDY    78  75  92 CALM      30.00R FOG
CARMI*         SUNNY     80  71  72 S3        29.98S HX  84
$$

ABBREVIATIONS USED IN REMARKS
   TC - TEMPERATURE IN CELSIUS
  WCI - WIND CHILL INDEX
   HX - HEAT INDEX
  VSB - VISIBILITY
$$



USA.gov is the U.S. government's official web portal to all federal, state and local government web resources and services.